Regional Weather Roundup
Issued by NWS

Home | Current Version | Previous Version | Graphics & Text | Print | Product List | Glossary On
Versions: 1 2 3 4 5 6 7 8 9 10 11 12 13 14 15 16 17 18 19 20 21 22 23 24 25 26 27 28 29 30 31 32 33 34 35 36 37 38 39 40 41 42 43 44 45 46 47 48 49 50
000
ASUS43 KLOT 192103
RWRIL

ILLINOIS REGIONAL WEATHER ROUNDUP
NATIONAL WEATHER SERVICE CHICAGO/ROMEOVILLE IL
400 PM CDT THU APR 19 2018

NOTE: "FAIR" INDICATES FEW OR NO CLOUDS BELOW 12,000 FEET WITH NO
SIGNIFICANT WEATHER AND/OR OBSTRUCTIONS TO VISIBILITY.

* THESE STATIONS ARE NOT UNDER NWS QUALITY CONTROL. THEY ALSO MAY NOT
  REPORT WEATHER SUCH AS PRECIPITATION OR FOG.

ILZ001-002-007-009-015-016-024-192200-
NORTHWEST ILLINOIS

CITY           SKY/WX    TMP DP  RH WIND       PRES   REMARKS
MOLINE         FAIR      54  26  34 N9        30.42F
STERLING*      FAIR      54  29  38 NW15      30.42F
SAVANNA*       FAIR      52  25  35 W9        30.43F
$$

ILZ003-004-008-010-011-017-018-192200-
NORTH CENTRAL ILLINOIS

CITY           SKY/WX    TMP DP  RH WIND       PRES   REMARKS
ROCKFORD       FAIR      54  22  28 N12       30.42S
FREEPORT*      FAIR      50  29  45 NW10      30.43S
ROCHELLE*      FAIR      51  31  46 NW12      30.41S
DE KALB*       FAIR      52  26  36 N15G21    30.39S
PERU*          FAIR      55  30  38 N12G17    30.41S
$$

ILZ005-006-012>014-019>023-192200-
NORTHEAST ILLINOIS

CITY           SKY/WX    TMP DP  RH WIND       PRES   REMARKS
CHICAGO-OHARE  FAIR      54  22  28 N13       30.37R
CHICAGO-MIDWAY FAIR      53  19  26 NE13      30.38R
AURORA         FAIR      53  26  35 N14       30.39S
LANSING*       FAIR      47  24  41 NE14G20   30.39S
JOLIET*        FAIR      54  29  37 W8        30.38S
WAUKEGAN       FAIR      49  25  39 NW7       30.39R
DUPAGE AIRPORT FAIR      53  26  35 N10       30.38R
KANKAKEE*      FAIR      54  25  33 N8        30.37F
WHEELING       FAIR      53  25  33 N10       30.40R
MORRIS*        FAIR      53  30  41 N7        30.38S
ROMEOVILLE*    FAIR      53  28  37 NW10G16   30.37S
$$

LMZ740>746-192200-
SOUTHERN LAKE MICHIGAN

STATION/POSITION SKY/WX   TEMP    WIND        PRES    VSBY  WAVE
                          AIR SEA DIR/SP/G                  HT/PER
                          (F)     (DEG/KT/KT) (MB)    (MI)  (FT/S)
HARRISON CRIB              40      20/ 11/ 12   N/A
BURNHAM HARBOR             43     360/  9/ 14   N/A
CALUMET HARBOR             42     360/ 10/ 14 1028.5S
BURNS HARBOR               38     350/ 13/ 18 1029.8R
MICHIGAN CITY              38     310/ 15/ 17   N/A
$$

ILZ025>027-034>036-040-047-049-050-058-095>099-192200-
WEST-CENTRAL ILLINOIS

CITY           SKY/WX    TMP DP  RH WIND       PRES   REMARKS
QUINCY         FAIR      57  31  37 N12G24    30.41F
GALESBURG*     FAIR      58  29  34 N9        30.42F
MACOMB*        FAIR      55  26  32 N7        30.44S
JACKSONVILLE*  FAIR      55  28  35 N7        30.40F
PITTSFIELD*    FAIR      56  31  38 N7        30.41F
$$

ILZ028>032-037-038-041>044-048-051>054-059>061-192200-
CENTRAL ILLINOIS

CITY           SKY/WX    TMP DP  RH WIND       PRES   REMARKS
PONTIAC        FAIR      54  29  38 NW15      30.40S
BLOOMINGTON    FAIR      54  27  35 N13       30.39S
DECATUR        FAIR      56  30  37 N14G21    30.38S
PEORIA         FAIR      56  25  30 N9        30.40F
LACON*         FAIR      54  28  37 N10       30.40S
LINCOLN*       FAIR      55  30  37 N8        30.40R
SPRINGFIELD    FAIR      58  28  32 N10G18    30.40F
TAYLORVILLE    FAIR      55  29  37 N9        30.39F
$$

ILZ033-039-045-046-055>057-062-063-192200-
EAST-CENTRAL ILLINOIS

CITY           SKY/WX    TMP DP  RH WIND       PRES   REMARKS
CHAMPAIGN      FAIR      55  27  34 NW9G23    30.36S
DANVILLE*      FAIR      54  32  43 N14       30.33S
RANTOUL*       FAIR      56  31  38 N9G20     30.36F
MATTOON        FAIR      55  30  38 N12G22    30.35F
PARIS*         FAIR      55  35  45 N7        30.36S
$$

ILZ079-100>102-192200-
SOUTHWEST ILLINOIS

CITY           SKY/WX    TMP DP  RH WIND       PRES   REMARKS
ALTON          MOSUNNY   57  34  41 N5        30.40F
BELLEVILLE     PTSUNNY   56  34  44 N12G18    30.39F
CAHOKIA*       PTSUNNY   55  32  41 NE14      30.41F
SPARTA*        PTSUNNY   50  36  58 N6        30.41S
$$

ILZ064>066-069>071-074>076-080>082-084>086-088>090-092>094-192200-
SOUTH-CENTRAL ILLINOIS

CITY           SKY/WX    TMP DP  RH WIND       PRES   REMARKS
CARBONDALE     PTSUNNY   51  33  50 N12G21    30.39S
CAIRO*         PTSUNNY   49  33  52 N13       30.38S
EFFINGHAM*     FAIR      55  34  44 N10       30.38F
MARION         PTSUNNY   52  32  46 N13       30.39F
MT. VERNON     PTSUNNY   53  33  46 N9        30.38F
CENTRALIA*     FAIR      53  36  50 N6        30.38S
SALEM*         FAIR      54  33  44 N3G18     30.38F
METROPOLIS*    PTSUNNY   51  32  48 N8        30.38S
$$

ILZ067-068-072-073-078-083-087-091-192200-
SOUTHEAST ILLINOIS

CITY           SKY/WX    TMP DP  RH WIND       PRES   REMARKS
LAWRENCEVILLE  FAIR      56  31  38 N13       30.36S
FLORA*         FAIR      55  36  48 N13       30.37F
FAIRFIELD*     FAIR      52  34  50 N9        30.36F
HARRISBURG*    FAIR      51  35  52 N10G20    30.38F
ROBINSON*      FAIR      54  33  45 N12G18    30.36F
CARMI*         PTSUNNY   53  35  49 N10       30.37S
$$

ABBREVIATIONS USED IN REMARKS
   TC - TEMPERATURE IN CELSIUS
  WCI - WIND CHILL INDEX
   HX - HEAT INDEX
  VSB - VISIBILITY
$$




USA.gov is the U.S. government's official web portal to all federal, state and local government web resources and services.